Weather History for North Island, CA

Change the Weather History Date:

Monday, February 4, 2013

  Actual Average Record
Temperature  
Mean Temperature 58 °F -  
Max Temperature 62 °F 61 °F 81 °F (2001)
Min Temperature 54 °F 48 °F 43 °F (2002)
Degree Days  
Heating Degree Days 7    
Growing Degree Days 8 (Base 50)    
Moisture  
Dew Point 51 °F    
Average Humidity 82    
Maximum Humidity 93    
Minimum Humidity 70    
Precipitation  
Precipitation 0.00 in - - ()
Sea Level Pressure  
Sea Level Pressure 30.05 in    
Wind  
Wind Speed 4 mph (NW)    
Max Wind Speed 10 mph    
Max Gust Speed -    
Visibility 4 miles    
Events Fog    
Averages and records for this station are not official NWS values.
T = Trace of Precipitation, MM = Missing Value Source: NWS Daily Summary

Daily Weather History Graph

Daily Weather History Graph

Search for Another Location

Airport:

Trip Planner

Search our weather history database for the weather conditions in past years. The results will help you decide how hot, cold, wet, or windy it might be!

Date:

Astronomy

Feb. 04, 2013 Rise Set
Actual Time 6:41 AM PST 5:24 PM PST
Civil Twilight 6:15 AM PST 5:50 PM PST
Nautical Twilight 5:46 AM PST 6:19 PM PST
Astronomical Twilight 5:17 AM PST 6:48 PM PST
Moon 1:17 AM PST (2/4) 11:57 AM PST (2/4)
Length of Visible Light 11h 34m
Length of Day
10h 43m
Last Quarter, 36% of the Moon is Illuminated
Feb 4
Last Quarter
Feb 9
New
Feb 17
First Quarter
Feb 25
Full
Mar 4
Last Quarter

Hourly Weather History & Observations

Time (PST) Temp. Dew Point Humidity Pressure Visibility Wind Dir Wind Speed Gust Speed Precip Events Conditions
12:04 AM 57.2 °F 53.6 °F 88% 30.04 in 3.0 mi North 3.5 mph - N/A   Mostly Cloudy
12:26 AM 57.2 °F 53.6 °F 88% 30.05 in 2.5 mi NNW 3.5 mph - N/A   Overcast
12:52 AM 57.0 °F 53.1 °F 87% 30.05 in 2.0 mi North 3.5 mph - N/A   Overcast
2:59 AM 57.2 °F 53.6 °F 88% 30.04 in 4.0 mi NE 3.5 mph - N/A   Overcast
3:12 AM 57.2 °F 51.8 °F 82% 30.04 in 2.5 mi Calm Calm - N/A   Overcast
3:36 AM 55.4 °F 51.8 °F 88% 30.04 in 2.0 mi North 4.6 mph - N/A   Overcast
3:52 AM 55.9 °F 52.0 °F 87% 30.03 in 1.0 mi NE 3.5 mph - N/A   Overcast
4:05 AM 55.4 °F 51.8 °F 88% 30.03 in 0.8 mi Calm Calm - N/A   Overcast
4:39 AM 55.4 °F 51.8 °F 88% 30.04 in 0.2 mi East 3.5 mph - N/A Fog Fog
4:52 AM 55.0 °F 51.1 °F 86% 30.04 in 0.5 mi Calm Calm - N/A Fog Fog
5:52 AM 54.0 °F 51.1 °F 90% 30.05 in 0.5 mi Calm Calm - N/A Fog Fog
6:52 AM 54.0 °F 51.1 °F 90% 30.06 in 0.5 mi Calm Calm - N/A Fog Fog
7:52 AM 54.0 °F 51.1 °F 90% 30.07 in 0.5 mi Calm Calm - N/A Fog Fog
8:52 AM 54.0 °F 52.0 °F 93% 30.09 in 0.5 mi Calm Calm - N/A Fog Fog
9:17 AM 55.4 °F 51.8 °F 88% 30.10 in 1.0 mi WSW 3.5 mph - N/A   Overcast
9:30 AM 55.4 °F 51.8 °F 88% 30.10 in 2.0 mi West 3.5 mph - N/A   Overcast
9:52 AM 57.0 °F 53.1 °F 87% 30.11 in 3.0 mi WSW 4.6 mph - N/A   Mostly Cloudy
10:52 AM 59.0 °F 52.0 °F 78% 30.10 in 6.0 mi WNW 4.6 mph - N/A   Haze
11:03 AM 60.8 °F 51.8 °F 72% 30.09 in 6.0 mi West 5.8 mph - N/A   Haze
11:52 AM 61.0 °F 52.0 °F 72% 30.07 in 7.0 mi WNW 4.6 mph - N/A   Partly Cloudy
12:52 PM 61.0 °F 52.0 °F 72% 30.04 in 7.0 mi NW 8.1 mph - N/A   Partly Cloudy
1:52 PM 62.1 °F 52.0 °F 70% 30.01 in 7.0 mi WNW 10.4 mph - N/A   Partly Cloudy
2:52 PM 61.0 °F 51.1 °F 70% 30.00 in 6.0 mi WNW 9.2 mph - N/A   Haze
3:52 PM 59.0 °F 50.0 °F 72% 30.01 in 6.0 mi WNW 10.4 mph - N/A   Haze
4:52 PM 57.9 °F 50.0 °F 75% 30.01 in 7.0 mi NNW 6.9 mph - N/A   Scattered Clouds
5:52 PM 55.9 °F 48.9 °F 77% 30.01 in 7.0 mi WNW 4.6 mph - N/A   Partly Cloudy
6:52 PM 55.0 °F 48.9 °F 80% 30.03 in 7.0 mi West 4.6 mph - N/A   Partly Cloudy
7:52 PM 55.0 °F 50.0 °F 83% 30.06 in 8.0 mi West 6.9 mph - N/A   Scattered Clouds
8:26 PM 55.4 °F 50.0 °F 82% 30.07 in 9.0 mi WNW 5.8 mph - N/A   Overcast
8:52 PM 55.9 °F 51.1 °F 84% 30.07 in 9.0 mi West 3.5 mph - N/A   Overcast
9:52 PM 57.0 °F 50.0 °F 77% 30.09 in 8.0 mi NW 4.6 mph - N/A   Overcast
10:52 PM 57.0 °F 48.9 °F 74% 30.09 in 6.0 mi WNW 5.8 mph - N/A   Haze
11:52 PM 57.0 °F 48.9 °F 74% 30.08 in 7.0 mi NNW 4.6 mph - N/A   Overcast